QPF
0.00 0.00 0.00 0.00 0.00 0.00 0.00 0.00 0.00 0.00 0.00 0.00 0.00 0.00 0.00 0.00 0.00 0.00 0.00 0.00 0.00 0.00 0.00 0.00 0.00 0.00 0.00 0.00 0.00 0.00 0.00 0.00 0.00 0.00 0.00 0.00 0.00 0.00 0.01 0.00 0.00 0.00 0.01 0.00 0.00
0.00 0.00 0.00 0.00 0.00 0.00 0.00 0.00 0.00 0.00 0.00 0.00 0.00 0.00 0.00 0.00 0.00 0.00 0.00 0.00 0.00 0.00 0.00 0.00 0.00 0.00 0.00 0.00 0.00 0.00 0.00 0.00 0.00 0.00 0.00 0.00 0.00 0.00 0.00 0.00 0.00 0.00 0.00 0.00 0.00
0.00 0.00 0.00 0.00 0.00 0.00 0.00 0.00 0.00 0.00 0.00 0.00 0.00 0.00 0.00 0.00 0.00 0.00 0.00 0.00 0.00 0.00 0.00 0.00 0.00 0.00 0.00 0.00 0.00 0.00 0.00 0.00 0.00 0.00 0.00 0.00 0.00 0.00 0.00 0.00 0.00 0.00 0.00 0.00 0.00
0.00 0.00 0.00 0.00 0.00 0.00 0.00 0.00 0.00 0.00 0.00 0.00 0.00 0.00 0.00 0.00 0.00 0.00 0.00 0.00 0.00 0.00 0.00 0.00 0.00 0.00 0.00 0.00 0.00 0.00 0.00 0.00 0.00 0.00 0.00 0.00 0.00 0.00 0.00 0.00 0.00 0.00 0.00 0.00 0.00
0.00 0.00 0.00 0.00 0.00 0.00 0.00 0.00 0.00 0.00 0.00 0.00 0.00 0.00 0.00 0.00 0.00 0.00 0.00 0.00 0.00 0.00 0.00 0.00 0.00 0.00 0.00 0.00 0.00 0.00 0.00 0.00 0.00 0.00 0.00 0.00 0.00 0.00 0.00 0.00 0.00 0.00 0.00 0.00 0.00
0.00 0.00 0.00 0.00 0.00 0.00 0.00 0.00 0.00 0.00 0.00 0.00 0.00 0.00 0.00 0.00 0.00 0.00 0.00 0.00 0.00 0.00 0.00 0.00 0.00 0.00 0.00 0.00 0.00 0.00 0.00 0.00 0.00 0.00 0.00 0.00 0.00 0.00 0.00 0.00 0.00 0.00 0.00 0.00 0.00
0.00 0.00 0.00 0.00 0.00 0.00 0.00 0.00 0.00 0.00 0.00 0.00 0.00 0.00 0.00 0.00 0.00 0.00 0.00 0.00 0.00 0.00 0.00 0.00 0.00 0.00 0.00 0.00 0.00 0.00 0.00 0.00 0.00 0.00 0.00 0.00 0.01 0.00 0.00 0.00 0.00 0.00 0.00 0.00 0.00
0.00 0.00 0.00 0.00 0.00 0.00 0.00 0.00 0.00 0.00 0.00 0.00 0.00 0.00 0.00 0.00 0.00 0.00 0.00 0.00 0.00 0.00 0.00 0.00 0.00 0.00 0.00 0.00 0.00 0.00 0.00 0.00 0.01 0.00 0.00 0.01 0.02 0.00 0.00 0.00 0.00 0.00 0.00 0.00 0.00
0.00 0.00 0.00 0.00 0.00 0.00 0.00 0.00 0.00 0.00 0.00 0.00 0.00 0.00 0.00 0.00 0.00 0.00 0.00 0.00 0.00 0.00 0.00 0.00 0.00 0.00 0.00 0.00 0.00 0.00 0.00 0.00 0.00 0.00 0.00 0.00 0.00 0.00 0.00 0.00 0.00 0.00 0.00 0.00 0.00
0.00 0.00 0.00 0.00 0.00 0.00 0.00 0.00 0.00 0.00 0.00 0.00 0.00 0.00 0.00 0.00 0.00 0.00 0.00 0.00 0.00 0.00 0.00 0.00 0.00 0.00 0.00 0.00 0.00 0.00 0.00 0.00 0.00 0.00 0.00 0.00 0.00 0.00 0.00 0.00 0.00 0.00 0.00 0.00 0.00
0.00 0.00 0.00 0.00 0.00 0.00 0.00 0.00 0.00 0.00 0.00 0.00 0.00 0.00 0.00 0.00 0.00 0.00 0.00 0.00 0.00 0.00 0.00 0.00 0.00 0.00 0.00 0.00 0.00 0.00 0.00 0.00 0.00 0.00 0.00 0.00 0.00 0.00 0.00 0.00 0.00 0.00 0.00 0.00 0.00
0.00 0.00 0.00 0.00 0.00 0.00 0.00 0.00 0.00 0.00 0.00 0.00 0.00 0.00 0.00 0.00 0.00 0.00 0.00 0.00 0.00 0.00 0.00 0.00 0.00 0.00 0.00 0.00 0.00 0.00 0.00 0.00 0.00 0.00 0.00 0.00 0.00 0.00 0.00 0.00 0.00 0.00 0.00 0.00 0.00
0.00 0.00 0.00 0.00 0.00 0.00 0.00 0.00 0.00 0.00 0.00 0.00 0.00 0.00 0.00 0.00 0.00 0.00 0.00 0.00 0.00 0.00 0.00 0.00 0.00 0.00 0.00 0.00 0.00 0.00 0.00 0.00 0.00 0.00 0.00 0.00 0.00 0.00 0.00 0.00 0.00 0.00 0.00 0.00 0.00
0.00 0.00 0.00 0.00 0.00 0.00 0.00 0.00 0.00 0.00 0.00 0.00 0.00 0.00 0.00 0.00 0.00 0.00 0.00 0.00 0.00 0.00 0.00 0.00 0.00 0.00 0.00 0.00 0.00 0.00 0.00 0.00 0.00 0.00 0.00 0.00 0.00 0.00 0.00 0.00 0.00 0.00 0.00 0.00 0.00
0.00 0.00 0.00 0.00 0.00 0.00 0.00 0.00 0.00 0.00 0.00 0.00 0.00 0.00 0.00 0.00 0.00 0.00 0.00 0.00 0.00 0.00 0.00 0.00 0.00 0.00 0.00 0.00 0.00 0.00 0.00 0.00 0.00 0.00 0.00 0.00 0.00 0.00 0.00 0.00 0.00 0.00 0.00 0.00 0.00
0.00 0.00 0.00 0.00 0.00 0.00 0.00 0.00 0.00 0.00 0.00 0.00 0.00 0.00 0.00 0.00 0.00 0.00 0.00 0.00 0.00 0.00 0.00 0.00 0.00 0.00 0.00 0.00 0.00 0.00 0.00 0.00 0.00 0.00 0.00 0.00 0.00 0.00 0.00 0.00 0.00 0.00 0.00 0.00 0.00
0.00 0.00 0.00 0.00 0.00 0.00 0.00 0.00 0.00 0.00 0.00 0.00 0.00 0.00 0.00 0.00 0.00 0.00 0.00 0.00 0.00 0.00 0.00 0.00 0.00 0.00 0.00 0.00 0.00 0.00 0.00 0.00 0.00 0.00 0.00 0.00 0.00 0.00 0.00 0.00 0.00 0.00 0.00 0.00 0.00
0.00 0.00 0.00 0.00 0.00 0.00 0.00 0.00 0.00 0.00 0.00 0.00 0.00 0.00 0.00 0.00 0.00 0.00 0.00 0.00 0.00 0.00 0.00 0.00 0.00 0.00 0.00 0.00 0.00 0.00 0.00 0.00 0.00 0.00 0.00 0.00 0.00 0.00 0.00 0.00 0.00 0.00 0.00 0.00 0.00
0.00 0.00 0.00 0.00 0.00 0.00 0.00 0.00 0.00 0.00 0.00 0.00 0.00 0.00 0.00 0.00 0.00 0.00 0.00 0.00 0.00 0.00 0.00 0.00 0.00 0.00 0.00 0.00 0.00 0.00 0.00 0.00 0.00 0.00 0.01 0.00 0.00 0.00 0.00 0.00 0.00 0.00 0.00 0.00 0.00
0.00 0.00 0.00 0.00 0.00 0.00 0.00 0.00 0.00 0.00 0.00 0.00 0.00 0.00 0.00 0.00 0.00 0.00 0.00 0.00 0.00 0.00 0.00 0.00 0.00 0.00 0.00 0.00 0.00 0.00 0.00 0.00 0.00 0.00 0.00 0.00 0.00 0.00 0.00 0.00 0.00 0.00 0.00 0.00 0.00
0.00 0.00 0.00 0.00 0.00 0.00 0.00 0.00 0.00 0.00 0.00 0.00 0.00 0.00 0.00 0.00 0.00 0.00 0.00 0.00 0.00 0.00 0.00 0.00 0.00 0.00 0.00 0.00 0.00 0.00 0.00 0.00 0.00 0.00 0.00 0.00 0.00 0.00 0.00 0.00 0.00 0.00 0.00 0.00 0.00
0.00 0.00 0.00 0.00 0.00 0.00 0.00 0.00 0.00 0.00 0.00 0.00 0.00 0.00 0.00 0.00 0.00 0.00 0.00 0.00 0.00 0.00 0.00 0.00 0.00 0.00 0.00 0.00 0.00 0.00 0.00 0.00 0.00 0.00 0.00 0.00 0.00 0.00 0.00 0.00 0.00 0.00 0.00 0.00 0.00
0.00 0.00 0.00 0.00 0.00 0.00 0.00 0.00 0.00 0.00 0.00 0.00 0.00 0.00 0.00 0.00 0.00 0.00 0.00 0.00 0.00 0.00 0.00 0.00 0.00 0.00 0.00 0.00 0.00 0.00 0.00 0.00 0.00 0.00 0.00 0.00 0.00 0.00 0.00 0.00 0.00 0.00 0.00 0.00 0.00
0.00 0.00 0.00 0.00 0.00 0.00 0.00 0.00 0.00 0.00 0.00 0.00 0.00 0.00 0.00 0.00 0.00 0.00 0.00 0.00 0.00 0.00 0.00 0.00 0.00 0.00 0.00 0.00 0.00 0.00 0.00 0.00 0.00 0.00 0.00 0.00 0.00 0.00 0.00 0.00 0.00 0.00 0.00 0.00 0.00
0.00 0.00 0.00 0.00 0.00 0.00 0.00 0.00 0.00 0.00 0.00 0.00 0.00 0.00 0.00 0.00 0.00 0.00 0.00 0.00 0.00 0.00 0.00 0.00 0.00 0.00 0.00 0.00 0.00 0.00 0.00 0.00 0.00 0.00 0.00 0.00 0.00 0.00 0.00 0.00 0.00 0.00 0.00 0.00 0.00
0.00 0.00 0.00 0.00 0.00 0.00 0.00 0.00 0.00 0.00 0.00 0.00 0.00 0.00 0.00 0.00 0.00 0.00 0.00 0.00 0.00 0.00 0.00 0.00 0.00 0.00 0.00 0.00 0.00 0.00 0.00 0.00 0.00 0.00 0.00 0.00 0.00 0.00 0.00 0.00 0.00 0.00 0.00 0.00 0.00
0.00 0.00 0.00 0.00 0.00 0.00 0.00 0.00 0.00 0.00 0.00 0.00 0.00 0.00 0.00 0.00 0.00 0.00 0.00 0.00 0.00 0.00 0.00 0.00 0.00 0.00 0.00 0.00 0.00 0.00 0.00 0.00 0.00 0.00 0.00 0.00 0.00 0.00 0.00 0.00 0.00 0.00 0.00 0.00 0.00
MSLP
1019.19 1018.70 1018.21 1017.68 1017.13 1016.55 1016.05 1015.56 1014.98 1014.30 1013.60 1012.83 1012.26 1011.37 1010.94 1010.60 1009.32 1008.40 1006.08 1005.93 1005.91 1006.19 1006.38 1005.01 1004.64 1004.08 1003.83 1002.87 1001.90 1000.95 1000.09 999.70 999.86 1001.48 1002.22 1002.05 1002.80 1004.10 1004.92 1005.87 1006.33 1006.87 1007.78 1009.35 1012.03
1019.29 1018.79 1018.23 1017.65 1017.08 1016.49 1015.89 1015.44 1014.94 1014.38 1013.74 1013.03 1012.30 1011.72 1010.93 1010.81 1009.11 1006.01 1005.85 1005.70 1006.06 1006.17 1005.53 1004.38 1003.37 1003.27 1002.50 1001.27 1000.82 1000.01 998.94 999.07 999.57 1000.04 1000.76 1001.74 1002.39 1004.14 1004.65 1005.77 1006.65 1007.16 1008.22 1009.94 1011.36
1019.35 1018.80 1018.21 1017.62 1017.02 1016.45 1015.85 1015.18 1014.67 1014.19 1013.66 1013.06 1012.31 1011.78 1011.36 1010.85 1007.58 1004.65 1005.76 1005.75 1006.07 1006.01 1004.38 1003.95 1003.22 1002.69 1001.44 1000.29 999.75 999.11 998.73 999.03 999.50 1000.22 1000.68 1001.63 1002.81 1003.57 1004.12 1004.92 1006.11 1007.30 1008.59 1009.84 1011.18
1019.42 1018.86 1018.21 1017.52 1016.94 1016.31 1015.71 1015.12 1014.40 1013.78 1013.30 1012.86 1012.23 1011.42 1010.76 1009.27 1005.91 1005.25 1006.04 1006.03 1006.18 1005.72 1004.51 1003.62 1002.85 1001.81 1000.07 999.45 999.54 998.92 999.36 999.29 999.98 1000.62 1001.13 1001.46 1002.56 1003.09 1003.91 1004.36 1006.12 1007.49 1008.84 1009.94 1011.23
1019.49 1018.83 1018.17 1017.45 1016.75 1016.05 1015.40 1014.79 1014.27 1013.53 1012.80 1012.46 1012.02 1011.71 1010.23 1007.51 1004.62 1005.25 1006.02 1006.38 1006.22 1005.74 1004.25 1002.81 1002.02 1000.94 1000.02 999.37 999.42 998.56 999.35 999.71 1000.34 1000.95 1001.40 1002.18 1002.57 1003.39 1004.43 1005.66 1006.59 1007.81 1008.94 1009.79 1010.79
1019.67 1018.94 1018.15 1017.37 1016.55 1015.76 1014.97 1014.36 1013.70 1013.25 1012.61 1011.94 1011.72 1011.74 1009.89 1006.13 1003.66 1004.29 1004.74 1005.52 1004.58 1004.57 1003.41 1002.67 1001.82 1001.49 1000.75 999.53 999.71 999.13 999.24 999.84 1000.34 1001.21 1001.83 1001.83 1003.06 1003.62 1005.18 1005.82 1006.78 1008.13 1008.70 1009.32 1009.92
1019.81 1019.04 1018.19 1017.33 1016.44 1015.43 1014.52 1013.83 1013.12 1012.57 1012.13 1011.62 1011.40 1010.94 1008.03 1004.68 1003.69 1003.69 1004.10 1003.98 1003.71 1003.40 1002.89 1002.42 1002.17 1001.83 1000.60 999.53 999.26 998.90 999.29 999.84 1000.09 1000.74 1001.04 1001.58 1002.75 1003.13 1005.27 1005.82 1006.97 1007.94 1008.49 1008.92 1009.44
1019.88 1019.11 1018.24 1017.32 1016.30 1015.11 1014.06 1013.20 1012.61 1012.01 1011.49 1011.12 1011.08 1009.92 1006.16 1003.53 1003.53 1003.83 1003.76 1003.46 1003.44 1003.36 1003.25 1002.97 1002.69 1002.04 1001.32 1000.06 999.81 999.09 998.79 998.65 999.65 1000.25 1000.37 1001.33 1003.01 1003.90 1005.46 1006.29 1007.35 1007.98 1008.16 1008.75 1009.50
1020.00 1019.16 1018.22 1017.29 1016.26 1014.92 1013.50 1012.44 1012.00 1011.50 1011.22 1011.03 1010.36 1008.36 1004.61 1004.32 1003.79 1003.36 1003.30 1002.99 1002.93 1002.91 1003.00 1003.01 1002.61 1001.67 1000.92 1000.08 999.29 998.56 997.84 999.48 1002.42 1000.06 999.82 1000.69 1001.62 1003.58 1005.27 1006.32 1007.27 1008.29 1007.96 1008.45 1009.38
1019.98 1019.04 1018.22 1017.37 1016.21 1014.63 1013.29 1011.23 1010.82 1011.20 1010.71 1009.43 1008.38 1007.04 1004.22 1002.81 1002.21 1002.36 1002.23 1002.53 1002.27 1002.05 1002.24 1002.58 1002.10 1001.05 1000.28 999.20 998.27 997.73 997.23 999.05 998.22 999.04 999.45 999.63 1000.42 1002.81 1004.55 1005.77 1006.86 1007.68 1007.82 1007.99 1008.58
1019.88 1018.97 1018.21 1017.17 1016.27 1014.53 1013.05 1009.18 1009.91 1009.58 1007.99 1006.71 1005.27 1004.42 1002.87 1003.07 1003.37 1002.66 1002.13 1002.34 1002.05 1001.81 1001.20 1001.28 1000.92 999.68 999.04 998.68 997.53 999.20 998.68 996.81 996.68 997.40 998.55 998.59 999.25 1000.93 1003.21 1004.49 1005.84 1006.66 1007.54 1007.67 1007.93
1020.11 1019.25 1018.33 1017.18 1016.08 1014.88 1013.09 1011.25 1012.61 1012.62 1009.31 1006.62 1005.08 1004.32 1003.70 1003.39 1002.98 1001.90 1001.66 1001.60 1001.17 1000.48 1000.53 1000.31 999.08 998.98 998.81 998.25 997.76 1000.43 998.04 997.03 996.61 996.99 998.02 997.92 997.83 998.67 1000.96 1002.52 1003.49 1005.18 1006.14 1006.86 1007.50
1019.99 1019.19 1018.36 1017.10 1015.94 1014.26 1013.05 1013.06 1012.83 1012.25 1009.61 1004.90 1003.22 1002.82 1002.65 1002.92 1002.16 1001.12 1001.11 1000.65 999.84 999.77 999.08 998.51 998.04 998.49 998.21 997.75 997.38 997.27 996.76 996.38 996.78 997.30 997.57 997.54 997.23 997.59 998.67 1000.75 1001.73 1003.04 1004.63 1005.74 1006.24
1020.03 1019.24 1018.50 1017.22 1016.10 1013.62 1012.47 1013.04 1012.57 1012.25 1008.53 1003.29 1002.04 1001.56 1001.75 1001.61 1000.91 1001.13 1000.07 1000.44 999.70 998.67 998.42 997.62 997.72 997.12 997.32 996.93 996.83 996.17 996.46 996.25 996.31 996.45 996.14 996.90 995.80 996.28 996.96 999.05 1000.31 1001.39 1002.57 1003.91 1004.85
1020.08 1019.38 1018.73 1018.36 1016.38 1013.47 1013.67 1013.10 1012.75 1011.86 1006.61 1001.65 1001.20 1001.68 1000.73 1000.68 999.29 999.44 1000.08 999.88 998.91 998.32 998.03 996.52 996.59 996.30 996.00 996.26 996.27 995.78 995.90 995.84 996.48 996.39 996.07 996.30 995.37 994.49 995.77 997.40 998.68 999.89 1001.01 1002.23 1003.52
1020.12 1019.52 1018.88 1015.48 1014.93 1013.79 1013.61 1013.05 1012.36 1009.94 1004.30 1001.54 1001.13 1000.98 1000.94 1000.57 1000.12 998.95 998.84 999.60 998.97 998.16 997.34 996.52 995.95 995.71 995.32 995.53 995.74 996.03 995.81 995.69 996.21 996.09 995.29 995.03 994.78 993.52 993.76 995.03 996.67 998.33 999.65 1000.90 1002.14
1019.92 1019.13 1018.75 1016.79 1014.40 1014.16 1013.60 1012.33 1010.23 1006.66 1002.80 1001.52 1000.98 1001.05 1000.31 999.63 999.31 999.31 998.57 998.54 998.18 997.76 996.76 996.21 995.29 994.98 995.14 994.98 995.17 995.65 995.26 995.17 995.54 995.22 994.46 994.35 994.33 993.78 994.58 993.73 994.33 996.21 998.14 999.72 1001.02
1019.55 1018.35 1016.76 1015.77 1014.88 1014.09 1013.25 1011.50 1008.31 1004.72 1003.04 1003.02 1002.69 1002.08 1001.19 999.69 999.40 998.60 998.49 997.64 997.90 997.21 996.02 995.20 994.69 994.30 994.32 994.26 994.55 994.76 994.52 994.22 994.26 993.93 993.66 994.46 993.71 993.39 994.81 993.24 993.58 994.54 996.69 998.61 1000.03
1019.14 1015.67 1014.71 1014.27 1014.44 1014.09 1012.69 1009.86 1006.95 1005.37 1005.06 1004.79 1003.88 1002.77 1001.41 999.98 1000.45 999.05 998.12 997.15 996.69 996.89 995.63 994.21 993.57 994.00 993.90 994.53 994.48 994.04 993.76 994.15 993.72 994.29 994.67 996.45 993.78 992.70 992.76 992.85 992.98 993.68 995.32 997.37 999.08
1018.79 1015.65 1013.69 1014.32 1014.19 1013.40 1011.87 1009.30 1007.14 1007.04 1007.41 1006.59 1005.07 1003.71 1001.68 1000.32 999.92 999.73 998.26 997.43 996.70 996.28 995.83 994.34 993.24 993.01 993.44 994.23 994.02 993.32 993.93 993.99 993.60 993.47 995.29 995.20 993.82 991.60 991.69 991.85 992.30 993.19 994.35 996.55 998.44
1018.33 1014.33 1013.69 1013.92 1013.89 1012.68 1010.53 1008.56 1007.89 1008.13 1008.76 1008.06 1006.54 1005.01 1003.65 1001.96 1001.03 1000.18 998.58 998.03 997.45 996.57 995.93 994.98 993.64 992.51 992.55 992.66 992.89 993.18 992.62 993.17 993.34 993.13 993.82 994.92 994.31 990.65 991.09 991.24 991.95 992.89 994.13 996.16 997.83
1016.72 1013.63 1013.51 1013.77 1012.96 1010.96 1009.53 1008.95 1010.20 1009.74 1009.21 1008.93 1007.87 1006.73 1005.67 1004.28 1003.05 1001.87 999.94 999.70 1000.56 999.69 997.71 995.66 994.46 992.82 991.69 992.22 992.90 992.52 992.36 992.47 992.38 992.72 992.58 993.20 992.10 990.05 990.16 991.11 991.97 992.80 994.25 996.02 997.52
1015.89 1013.80 1013.04 1013.28 1011.51 1010.18 1009.51 1010.30 1010.31 1010.04 1009.46 1008.93 1008.17 1007.60 1007.10 1006.09 1005.20 1003.43 1001.45 1001.63 1002.02 1000.77 999.44 998.24 995.20 993.36 992.05 991.77 992.07 991.63 991.91 991.94 992.15 992.49 992.21 993.13 993.88 991.69 990.91 991.31 991.70 992.85 994.48 996.04 997.27
1016.33 1013.22 1012.47 1012.44 1012.14 1011.66 1010.45 1010.41 1010.08 1010.24 1010.41 1009.68 1008.94 1008.29 1007.63 1007.03 1006.45 1005.11 1003.55 1003.00 1002.95 1002.21 1002.02 1001.22 997.24 993.83 991.48 990.56 991.13 991.74 991.38 991.46 991.58 991.37 991.54 991.92 994.02 992.34 991.00 991.39 991.74 993.08 994.56 995.95 997.02
1016.42 1014.60 1014.25 1012.60 1012.39 1012.01 1011.94 1011.34 1010.82 1010.02 1010.14 1010.14 1009.63 1009.34 1008.60 1007.82 1007.26 1006.01 1005.02 1003.92 1003.49 1003.08 1001.83 1000.38 997.98 995.32 992.78 991.18 990.76 990.83 991.29 990.89 990.86 991.04 990.92 991.29 992.11 994.60 991.08 991.43 991.87 993.12 994.69 995.79 996.76
1017.13 1015.75 1015.23 1013.87 1013.31 1013.09 1012.39 1011.64 1011.01 1010.54 1010.82 1010.06 1009.92 1009.61 1009.75 1008.17 1007.29 1006.13 1005.67 1004.79 1003.86 1003.37 1002.76 1000.79 998.72 996.40 993.82 992.16 990.64 989.92 990.32 990.59 990.45 990.80 990.53 990.85 990.24 990.18 990.58 991.60 992.19 993.02 994.43 995.33 996.41
1017.65 1016.79 1016.17 1014.21 1013.09 1012.57 1011.71 1012.05 1012.01 1011.97 1011.68 1011.36 1011.46 1010.76 1010.67 1009.93 1009.08 1008.20 1008.02 1006.85 1006.04 1005.46 1004.23 1002.39 999.87 997.42 994.70 993.07 991.39 989.53 988.99 989.79 990.00 990.18 990.14 989.87 990.65 990.51 991.12 991.25 992.14 992.94 993.88 994.82 995.79
Thickness
5703 5707 5712 5717 5722 5728 5734 5740 5747 5754 5761 5770 5777 5787 5792 5797 5809 5819 5829 5837 5842 5841 5842 5849 5849 5848 5848 5843 5857 5866 5832 5828 5836 5807 5810 5844 5828 5834 5835 5817 5821 5823 5816 5811 5795
5699 5703 5709 5714 5720 5726 5733 5738 5744 5751 5758 5765 5774 5781 5790 5793 5809 5828 5839 5842 5840 5841 5842 5840 5840 5845 5839 5848 5855 5850 5846 5842 5860 5855 5838 5840 5836 5823 5820 5812 5808 5813 5817 5809 5801
5695 5700 5705 5711 5717 5723 5729 5737 5743 5749 5756 5762 5771 5778 5784 5791 5812 5830 5837 5840 5839 5841 5854 5852 5852 5845 5838 5858 5858 5861 5842 5859 5858 5855 5854 5839 5830 5836 5823 5810 5813 5804 5804 5805 5797
5690 5695 5701 5708 5713 5720 5726 5733 5741 5749 5755 5761 5768 5777 5785 5800 5784 5830 5832 5835 5837 5841 5846 5844 5844 5837 5846 5848 5862 5840 5855 5858 5852 5853 5846 5838 5840 5830 5829 5827 5826 5817 5809 5802 5791
5685 5691 5697 5703 5710 5717 5724 5731 5737 5745 5754 5760 5766 5771 5788 5793 5810 5834 5830 5829 5833 5836 5836 5841 5838 5844 5838 5856 5856 5858 5850 5854 5853 5849 5846 5844 5834 5829 5824 5828 5827 5816 5806 5801 5795
5677 5684 5691 5698 5706 5714 5722 5729 5737 5742 5750 5758 5763 5766 5779 5778 5836 5839 5838 5831 5838 5835 5839 5844 5842 5850 5841 5851 5840 5859 5856 5851 5852 5843 5841 5837 5829 5831 5821 5829 5819 5809 5805 5805 5802
5667 5675 5683 5691 5700 5710 5720 5727 5735 5741 5748 5754 5759 5766 5777 5798 5834 5839 5837 5835 5843 5842 5834 5848 5851 5840 5850 5846 5865 5863 5841 5848 5851 5848 5842 5849 5821 5827 5824 5827 5812 5806 5806 5807 5805
5656 5665 5673 5682 5692 5703 5715 5725 5732 5739 5746 5751 5755 5764 5773 5826 5831 5828 5833 5832 5842 5845 5840 5847 5850 5842 5839 5859 5851 5846 5855 5837 5849 5852 5854 5844 5781 5822 5824 5816 5803 5803 5806 5804 5800
5642 5651 5661 5672 5682 5695 5711 5722 5728 5735 5739 5745 5753 5762 5776 5813 5808 5825 5829 5821 5831 5837 5841 5843 5840 5832 5841 5830 5831 5848 5835 5814 5757 5855 5852 5839 5799 5824 5824 5814 5802 5796 5805 5803 5797
5630 5639 5647 5657 5669 5686 5700 5721 5726 5727 5735 5748 5757 5752 5785 5791 5814 5820 5835 5830 5822 5827 5821 5819 5821 5817 5827 5830 5808 5831 5850 5829 5849 5850 5847 5842 5836 5828 5823 5814 5803 5800 5803 5804 5802
5617 5626 5635 5646 5655 5672 5687 5723 5723 5724 5741 5743 5757 5764 5781 5794 5807 5806 5821 5815 5818 5811 5795 5816 5799 5801 5825 5839 5856 5821 5831 5853 5866 5871 5846 5849 5851 5839 5829 5822 5808 5805 5799 5803 5806
5608 5613 5620 5632 5644 5656 5674 5683 5676 5680 5699 5736 5751 5760 5772 5785 5769 5795 5818 5795 5797 5790 5809 5804 5795 5828 5840 5847 5847 5791 5835 5845 5865 5871 5851 5853 5858 5864 5845 5834 5831 5815 5810 5809 5810
5605 5609 5614 5625 5635 5650 5660 5657 5666 5673 5682 5730 5754 5757 5765 5771 5768 5783 5801 5802 5797 5794 5806 5800 5820 5836 5833 5835 5835 5844 5846 5852 5844 5851 5857 5850 5846 5856 5862 5851 5848 5840 5828 5821 5819
5599 5604 5608 5618 5627 5645 5649 5649 5655 5659 5671 5723 5736 5752 5762 5772 5763 5793 5808 5796 5793 5794 5808 5812 5834 5832 5827 5827 5842 5832 5861 5860 5853 5847 5831 5855 5825 5849 5864 5848 5847 5846 5842 5835 5832
5591 5593 5598 5600 5615 5633 5632 5639 5643 5647 5652 5723 5728 5755 5765 5756 5787 5781 5804 5793 5782 5795 5804 5807 5819 5823 5823 5829 5849 5843 5868 5863 5851 5844 5848 5839 5841 5869 5871 5847 5849 5852 5851 5849 5845
5583 5584 5587 5611 5614 5623 5624 5631 5635 5631 5646 5704 5719 5722 5729 5746 5757 5779 5783 5793 5800 5792 5806 5813 5845 5839 5842 5854 5855 5862 5856 5857 5852 5848 5824 5852 5854 5868 5873 5867 5865 5863 5860 5858 5854
5575 5577 5577 5587 5602 5607 5613 5620 5620 5632 5699 5695 5697 5708 5721 5733 5746 5752 5760 5761 5758 5751 5767 5798 5815 5841 5848 5835 5852 5846 5841 5812 5804 5814 5819 5865 5853 5872 5842 5893 5891 5876 5868 5865 5862
5567 5573 5580 5584 5589 5595 5599 5602 5607 5662 5678 5674 5676 5688 5694 5725 5729 5743 5746 5752 5768 5775 5782 5778 5777 5819 5842 5834 5828 5832 5843 5821 5790 5815 5838 5855 5835 5863 5850 5907 5906 5900 5885 5875 5868
5559 5582 5584 5585 5580 5581 5582 5590 5618 5637 5640 5635 5655 5665 5683 5712 5709 5727 5741 5754 5773 5777 5769 5786 5793 5835 5841 5843 5842 5834 5828 5862 5843 5842 5820 5767 5856 5890 5895 5894 5900 5898 5891 5878 5872
5550 5568 5576 5568 5565 5567 5568 5579 5605 5611 5614 5623 5627 5652 5667 5696 5701 5705 5725 5754 5764 5784 5800 5801 5792 5829 5833 5840 5843 5845 5860 5822 5839 5808 5756 5797 5814 5857 5877 5886 5895 5892 5891 5883 5877
5544 5564 5565 5554 5552 5551 5559 5579 5587 5593 5592 5594 5612 5629 5648 5666 5675 5692 5720 5744 5760 5767 5788 5796 5803 5814 5832 5811 5815 5826 5834 5839 5851 5848 5802 5773 5793 5906 5889 5898 5888 5892 5894 5884 5878
5547 5551 5554 5543 5535 5553 5559 5567 5536 5565 5579 5581 5597 5610 5620 5639 5648 5668 5698 5699 5711 5730 5741 5781 5792 5787 5813 5835 5843 5844 5837 5846 5826 5821 5849 5829 5839 5908 5913 5901 5897 5895 5891 5885 5882
5540 5544 5546 5536 5534 5544 5555 5543 5547 5551 5562 5570 5580 5596 5607 5613 5617 5653 5675 5682 5692 5712 5726 5754 5768 5773 5791 5821 5829 5824 5839 5850 5856 5856 5836 5807 5813 5889 5903 5896 5902 5893 5887 5881 5881
5527 5536 5536 5532 5531 5526 5534 5534 5538 5547 5545 5557 5565 5579 5587 5594 5610 5620 5647 5664 5680 5693 5699 5714 5746 5773 5784 5809 5824 5802 5826 5844 5846 5833 5841 5846 5803 5854 5889 5884 5894 5891 5886 5882 5881
5519 5519 5514 5516 5514 5520 5519 5524 5525 5534 5542 5546 5549 5555 5565 5573 5587 5606 5629 5649 5668 5675 5703 5717 5724 5767 5800 5829 5833 5823 5818 5835 5832 5846 5838 5851 5836 5800 5886 5886 5892 5891 5884 5880 5879
5501 5503 5502 5508 5507 5505 5506 5515 5521 5528 5527 5534 5538 5541 5545 5562 5580 5602 5613 5623 5642 5656 5674 5705 5713 5751 5772 5806 5826 5824 5827 5831 5841 5844 5855 5858 5865 5900 5898 5894 5890 5888 5881 5879 5877
5491 5491 5489 5500 5507 5509 5514 5508 5506 5510 5513 5518 5515 5523 5524 5542 5558 5567 5569 5592 5616 5628 5649 5673 5707 5726 5739 5786 5803 5801 5827 5827 5839 5851 5856 5843 5862 5890 5876 5886 5884 5887 5886 5883 5882